When you browse on this site, cookies collect data to enhance your experience and personalize the content and advertising you see.
Visit our Privacy Policy to learn more. By continuing to use the site, you agree to this use of cookies and data.
  • In Czech Republic
  • List of Countries
  • For 7 days
  • Water Temperature
  • Satellite Maps
  • Weather Map
  • Weather Widgets
  • user-avatar
    Login

    Hourly Weather Avila de los Caballeros

    Today, 11 December, Tuesday

    Time Temperature Precipitation Wind Pressure Humidity
    00:00 +7°C° 0 mm 1 mps 674 mmHg 51%
    01:00 +7°C° 0 mm 1 mps 674 mmHg 51%
    02:00 +7°C° 0 mm 1 mps 674 mmHg 52%
    03:00 +6°C° 0 mm 1 mps 673 mmHg 52%
    04:00 +6°C° 0 mm 1 mps 673 mmHg 53%
    05:00 +6°C° 0 mm 1 mps 673 mmHg 54%
    06:00 +6°C° 0 mm 1 mps 673 mmHg 55%
    07:00 +7°C° 0 mm 1 mps 673 mmHg 53%
    08:00 +8°C° 0 mm 1 mps 673 mmHg 51%
    09:00 +9°C° 0 mm 1 mps 674 mmHg 50%
    10:00 +10°C° 0 mm 1 mps 674 mmHg 45%
    11:00 +12°C° 0 mm 1 mps 674 mmHg 41%
    12:00 +14°C° 0 mm 2 mps 674 mmHg 36%
    13:00 +14°C° 0 mm 2 mps 674 mmHg 38%
    14:00 +14°C° 0 mm 2 mps 674 mmHg 39%
    15:00 +14°C° 0 mm 2 mps 673 mmHg 41%
    16:00 +12°C° 0 mm 2 mps 673 mmHg 46%
    17:00 +10°C° 0 mm 2 mps 673 mmHg 51%
    18:00 +9°C° 0 mm 1 mps 672 mmHg 56%
    19:00 +8°C° 0 mm 1 mps 673 mmHg 58%
    20:00 +7°C° 0 mm 2 mps 673 mmHg 61%
    21:00 +6°C° 0 mm 2 mps 673 mmHg 63%
    22:00 +6°C° 0 mm 2 mps 673 mmHg 66%
    23:00 +5°C° 0 mm 2 mps 673 mmHg 68%

    Tomorrow, 12 December, Wednesday

    Time Temperature Precipitation Wind Pressure Humidity
    00:00 +5°C° 0 mm 2 mps 673 mmHg 71%
    01:00 +5°C° 0 mm 2 mps 672 mmHg 73%
    02:00 +4°C° 0 mm 2 mps 672 mmHg 75%
    03:00 +5°C° 0 mm 1 mps 672 mmHg 77%
    04:00 +5°C° 0 mm 1 mps 672 mmHg 79%
    05:00 +4°C° 0 mm 1 mps 672 mmHg 80%
    06:00 +4°C° 0 mm 1 mps 672 mmHg 82%
    07:00 +5°C° 0 mm 1 mps 672 mmHg 80%
    08:00 +6°C° 0 mm 1 mps 672 mmHg 78%
    09:00 +6°C° 0 mm 1 mps 672 mmHg 76%
    10:00 +7°C° 0 mm 2 mps 672 mmHg 70%
    11:00 +8°C° 0 mm 2 mps 672 mmHg 64%
    12:00 +10°C° 0 mm 2 mps 672 mmHg 58%
    13:00 +10°C° 0 mm 3 mps 672 mmHg 57%
    14:00 +10°C° 0 mm 3 mps 671 mmHg 57%
    15:00 +11°C° 0 mm 3 mps 671 mmHg 56%
    16:00 +9°C° 0 mm 3 mps 670 mmHg 65%
    17:00 +7°C° 0 mm 2 mps 670 mmHg 73%
    18:00 +6°C° 0 mm 2 mps 669 mmHg 81%
    19:00 +6°C° 0 mm 2 mps 669 mmHg 82%
    20:00 +6°C° 0 mm 2 mps 669 mmHg 83%
    21:00 +5°C° 0 mm 3 mps 669 mmHg 84%
    22:00 +5°C° 0.4 mm 3 mps 669 mmHg 84%
    23:00 +5°C° 0.4 mm 3 mps 669 mmHg 85%

    Day after tomorrow, 13 December, Thursday

    Time Temperature Precipitation Wind Pressure Humidity
    00:00 +5°C° 0.4 mm 3 mps 668 mmHg 86%
    01:00 +5°C° 0.1 mm 4 mps 667 mmHg 86%
    02:00 +5°C° 0.1 mm 4 mps 666 mmHg 86%
    03:00 +5°C° 0.1 mm 4 mps 665 mmHg 86%
    04:00 +3°C° 1.3 mm 5 mps 664 mmHg 88%
    05:00 +3°C° 1.3 mm 5 mps 663 mmHg 89%
    06:00 +3°C° 1.3 mm 6 mps 663 mmHg 90%
    07:00 +3°C° 1.2 mm 7 mps 663 mmHg 86%
    08:00 +1°C° 1.2 mm 8 mps 663 mmHg 82%
    09:00 0°C° 1.2 mm 9 mps 663 mmHg 78%
    10:00 0°C° 0.3 mm 9 mps 664 mmHg 75%
    11:00 +1°C° 0.3 mm 10 mps 664 mmHg 71%
    12:00 +1°C° 0.3 mm 11 mps 664 mmHg 68%
    13:00 +1°C° 0.2 mm 11 mps 665 mmHg 67%
    14:00 +1°C° 0.2 mm 11 mps 665 mmHg 66%
    15:00 +1°C° 0.2 mm 11 mps 665 mmHg 64%
    16:00 +1°C° 0 mm 10 mps 666 mmHg 67%
    17:00 0°C° 0 mm 9 mps 666 mmHg 70%
    18:00 -1°C° 0 mm 8 mps 667 mmHg 73%
    19:00 -1°C° 0 mm 7 mps 667 mmHg 76%
    20:00 -1°C° 0 mm 7 mps 668 mmHg 78%
    21:00 -1°C° 0 mm 7 mps 668 mmHg 81%
    22:00 -2°C° 0 mm 6 mps 668 mmHg 83%
    23:00 -2°C° 0 mm 6 mps 669 mmHg 85%

    14 December, Friday

    Time Temperature Precipitation Wind Pressure Humidity
    00:00 -2°C° 0 mm 5 mps 669 mmHg 87%
    01:00 -2°C° 0 mm 5 mps 669 mmHg 87%
    02:00 -2°C° 0 mm 5 mps 669 mmHg 88%
    03:00 -1°C° 0 mm 5 mps 670 mmHg 88%
    04:00 -2°C° 0 mm 5 mps 670 mmHg 88%
    05:00 -2°C° 0 mm 5 mps 670 mmHg 89%
    06:00 -2°C° 0 mm 4 mps 670 mmHg 89%
    07:00 -1°C° 0 mm 4 mps 671 mmHg 87%
    08:00 -1°C° 0 mm 4 mps 672 mmHg 85%
    09:00 0°C° 0 mm 3 mps 673 mmHg 83%
    10:00 +2°C° 0 mm 3 mps 673 mmHg 78%
    11:00 +3°C° 0 mm 3 mps 674 mmHg 73%
    12:00 +4°C° 0 mm 3 mps 674 mmHg 68%
    13:00 +4°C° 0 mm 3 mps 674 mmHg 66%
    14:00 +5°C° 0 mm 3 mps 674 mmHg 64%
    15:00 +5°C° 0 mm 3 mps 674 mmHg 62%
    16:00 +4°C° 0 mm 3 mps 674 mmHg 68%
    17:00 +4°C° 0 mm 2 mps 674 mmHg 74%
    18:00 +2°C° 0 mm 2 mps 675 mmHg 79%
    19:00 +2°C° 0 mm 2 mps 675 mmHg 78%
    20:00 +2°C° 0 mm 2 mps 675 mmHg 77%
    21:00 +2°C° 0 mm 2 mps 676 mmHg 76%
    22:00 +3°C° 0 mm 1 mps 676 mmHg 76%
    23:00 +3°C° 0 mm 1 mps 676 mmHg 76%

    15 December, Saturday

    Time Temperature Precipitation Wind Pressure Humidity
    00:00 +2°C° 0 mm 1 mps 676 mmHg 76%
    01:00 +2°C° 0 mm 1 mps 676 mmHg 76%
    02:00 +3°C° 0 mm 1 mps 675 mmHg 77%
    03:00 +3°C° 0 mm 1 mps 675 mmHg 78%
    04:00 +3°C° 0 mm 1 mps 675 mmHg 78%
    05:00 +3°C° 0 mm 1 mps 675 mmHg 79%
    06:00 +3°C° 0 mm 1 mps 676 mmHg 79%
    07:00 +4°C° 0 mm 1 mps 676 mmHg 78%
    08:00 +5°C° 0 mm 1 mps 677 mmHg 76%
    09:00 +6°C° 0 mm 1 mps 677 mmHg 74%
    10:00 +8°C° 0 mm 1 mps 678 mmHg 71%
    11:00 +10°C° 0 mm 1 mps 678 mmHg 69%
    12:00 +12°C° 0 mm 2 mps 678 mmHg 66%
    13:00 +12°C° 0 mm 2 mps 677 mmHg 65%
    14:00 +12°C° 0 mm 2 mps 677 mmHg 65%
    15:00 +12°C° 0 mm 2 mps 677 mmHg 65%
    16:00 +10°C° 0 mm 2 mps 676 mmHg 71%
    17:00 +9°C° 0 mm 1 mps 676 mmHg 77%
    18:00 +7°C° 0 mm 1 mps 676 mmHg 82%
    19:00 +7°C° 0 mm 1 mps 676 mmHg 83%
    20:00 +7°C° 0 mm 1 mps 676 mmHg 84%
    21:00 +7°C° 0 mm 1 mps 676 mmHg 84%
    22:00 +7°C° 0 mm 1 mps 676 mmHg 85%
    23:00 +7°C° 0 mm 1 mps 676 mmHg 85%

    16 December, Sunday

    Time Temperature Precipitation Wind Pressure Humidity
    00:00 +6°C° 0 mm 1 mps 676 mmHg 86%
    01:00 +6°C° 0 mm 1 mps 675 mmHg 86%
    02:00 +6°C° 0 mm 1 mps 675 mmHg 85%
    03:00 +5°C° 0 mm 2 mps 675 mmHg 85%
    04:00 +5°C° 0 mm 2 mps 675 mmHg 86%
    05:00 +6°C° 0 mm 2 mps 675 mmHg 86%
    06:00 +6°C° 0 mm 2 mps 675 mmHg 86%
    07:00 +6°C° 0 mm 2 mps 675 mmHg 85%
    08:00 +6°C° 0 mm 2 mps 675 mmHg 84%
    09:00 +7°C° 0 mm 2 mps 675 mmHg 83%
    10:00 +8°C° 0 mm 3 mps 675 mmHg 76%
    11:00 +10°C° 0 mm 4 mps 676 mmHg 70%
    12:00 +11°C° 0 mm 4 mps 676 mmHg 64%
    13:00 +11°C° 0 mm 4 mps 676 mmHg 64%
    14:00 +11°C° 0 mm 4 mps 675 mmHg 65%
    15:00 +11°C° 0 mm 3 mps 675 mmHg 65%
    16:00 +10°C° 0 mm 3 mps 675 mmHg 71%
    17:00 +9°C° 0 mm 2 mps 675 mmHg 76%
    18:00 +8°C° 0 mm 2 mps 675 mmHg 82%
    19:00 +8°C° 0 mm 2 mps 675 mmHg 84%
    20:00 +7°C° 0 mm 2 mps 675 mmHg 86%
    21:00 +7°C° 0 mm 2 mps 675 mmHg 88%
    22:00 +7°C° 0.1 mm 1 mps 675 mmHg 88%
    23:00 +7°C° 0.1 mm 1 mps 675 mmHg 89%
    Show more